STARLINK-31016, 58548

Orbit data source: Space-Track

STARLINK-31016, 58548 is a payload satellite owned by SpaceX/Seattle (US) in LEO that was launched on Fri, 08 Dec 2023 UTC via an FALCON 9 launch vehicle from the Air Force Western Test Range (AFWTR). Payload-class satellites include a variety of spacecraft equipped with specific instruments for various scientific and technological missions. These include communications satellites like Starlink; space stations such as the ISS; scientific satellites like the Hubble; Earth observation satellites from companies like Planet Labs, Umbra, and HawkEye 360; GPS; miniature CubeSats for education and research; and military/defense satellites.

Loading next visibility...
Identifier
58548, 2023-192T
Orbit
LEO
Country
Flag of USUS
Related business
Manufacturer
SpaceX/Seattle
Mission
Operational Commercial Communications
Bus & Motor
STARLINK V2M, Unknown motor
Mass
730 kg wet, ~700 kg dry
Launch date (UTC)
2023-12-08 (3 years ago)
Launch vehicle
FALCON 9
Launch site
Air Force Western Test Range (AFWTR)
Object type
Payload
Rocket body
Debris
Shape & HBR
Box + 2 Pan, 17.7 m
Radar Cross Section
33.884 m², Large (>1 m²)

Expand to show TLE details & history
Last TLE update: 2 days ago

TLE from 2 days ago
0 STARLINK-31016
1 58548U 23192T   26171.33332843  .00000225  00000-0  19737-4 0  9993
2 58548  53.1633 305.7123 0001532 116.7639 243.3519 15.30196530141701
Epoch: 2026-06-20T07:59Z
TLE epoch observation values (Epoch: 2026-06-20T07:59:59.576Z)
Latitude
0.00001°
Longitude
-82.83538°
Altitude
476.597 km
Speed
7.628 km/s
True Right ascension
20h 22m 50s
True Declination
0° 00' 00"
Sunlit
Object was in full shadow at epoch
Visualization orbit readout
Latitude
Unknown
Longitude
Unknown
Altitude
Unknown
Speed
Unknown
Apparent Right ascension
Unknown
Apparent Declination
Unknown
Sunlit
N/A
Visualization observer readout
Local Sidereal Time
21:28:59
Azimuth
Unknown
Elevation
Unknown
Doppler factor
Unknown
Orbital elements
Apogee altitude
476.531 km
Perigee altitude
474.431 km
Semi-major axis
6,853.618 km
Eccentricity
0.00015
Inclination
53.1633°
RAAN
305.7123°
Arg. of periapsis
116.7639°
True anomaly
243.33621°
Mean anomaly
243.3519°
Eccentric anomaly
243.34406°
Mean motion
3.82528 °/min
Orbital period
94.11 mins
BSTAR
0.000019737
Loading maneuver chart data...
Computing Atmospheric mass density...
Loading historical data...
Loading historical data...
Loading historical data...
Loading historical data...
Loading historical data...
Loading historical data...
Loading historical data...

Documentation

Showing up to 5 results
|